Location: Rancho Del Sol Observatory
(38.7214°N, 120.6350°W)
Time: 05:41:25
(UTC-08:00)

Courier 1B Rocket - Pass Details

Date: 26 January 2020
Orbit: 920 x 1202 km, 28.2° (Epoch: 24 February)

Event Time Altitude Azimuth Distance (km) Brightness Sun altitude
Rises 10:41:01 0° 229° (SW) 4,011 8.4 28.5°
Reaches altitude 10° 10:44:24 10° 217° (SW) 3,012 8.0 28.8°
Maximum altitude 10:50:17 26° 165° (SSE) 1,999 9.4 29.2°
Drops below altitude 10° 10:55:52 10° 111° (ESE) 2,850 8.2 29.7°
Sets 10:58:57 0° 99° (E) 3,755 8.4 29.9°
